TimeCST,TemperatureF,Dew PointF,Humidity,Sea Level PressureIn,VisibilityMPH,Wind Direction,Wind SpeedMPH,Gust SpeedMPH,PrecipitationIn,Events,Conditions,WindDirDegrees,DateUTC
12:52 AM,34.0,25.0,70,30.19,10.0,South,9.2,-,N/A,,Overcast,170,2013-01-05 06:52:00
1:52 AM,35.1,26.1,70,30.18,10.0,South,12.7,-,N/A,,Overcast,190,2013-01-05 07:52:00
2:52 AM,36.0,27.0,70,30.17,10.0,South,10.4,-,N/A,,Overcast,190,2013-01-05 08:52:00
4:52 AM,35.1,28.0,76,30.14,10.0,South,15.0,-,N/A,,Overcast,190,2013-01-05 10:52:00
5:52 AM,34.0,28.0,79,30.14,10.0,South,12.7,-,N/A,,Mostly Cloudy,190,2013-01-05 11:52:00
6:52 AM,32.0,28.0,85,30.14,10.0,South,12.7,-,N/A,,Clear,190,2013-01-05 12:52:00
7:52 AM,30.9,27.0,85,30.16,10.0,SSW,8.1,-,N/A,,Clear,200,2013-01-05 13:52:00
8:52 AM,32.0,28.0,85,30.17,10.0,South,6.9,-,N/A,,Partly Cloudy,190,2013-01-05 14:52:00
9:52 AM,37.0,30.0,76,30.17,10.0,SSW,12.7,-,N/A,,Clear,200,2013-01-05 15:52:00
10:52 AM,41.0,28.9,62,30.17,10.0,SW,19.6,-,N/A,,Clear,230,2013-01-05 16:52:00
11:52 AM,43.0,28.0,56,30.14,10.0,WSW,12.7,20.7,N/A,,Clear,240,2013-01-05 17:52:00
12:52 PM,45.0,28.0,52,30.12,10.0,WSW,11.5,21.9,N/A,,Clear,250,2013-01-05 18:52:00
1:52 PM,46.0,27.0,47,30.09,10.0,WSW,13.8,-,N/A,,Clear,250,2013-01-05 19:52:00
2:52 PM,46.0,26.1,46,30.12,10.0,WNW,18.4,-,N/A,,Clear,290,2013-01-05 20:52:00
3:52 PM,39.9,21.0,47,30.17,10.0,WNW,17.3,-,N/A,,Clear,300,2013-01-05 21:52:00
4:52 PM,35.1,19.0,52,30.20,10.0,WNW,13.8,-,N/A,,Clear,300,2013-01-05 22:52:00
5:52 PM,30.9,18.0,59,30.22,10.0,WNW,6.9,-,N/A,,Clear,300,2013-01-05 23:52:00
6:52 PM,28.9,19.0,67,30.25,10.0,WNW,5.8,-,N/A,,Clear,290,2013-01-06 00:52:00
7:52 PM,28.0,19.0,69,30.26,10.0,WNW,3.5,-,N/A,,Clear,300,2013-01-06 01:52:00
8:52 PM,28.9,21.9,75,30.25,10.0,NW,10.4,-,N/A,,Clear,320,2013-01-06 02:52:00
9:52 PM,30.0,23.0,75,30.27,10.0,NW,10.4,-,N/A,,Clear,310,2013-01-06 03:52:00
10:52 PM,30.9,23.0,72,30.28,10.0,NW,9.2,-,N/A,,Clear,310,2013-01-06 04:52:00
11:52 PM,30.0,23.0,75,30.30,10.0,WNW,10.4,-,N/A,,Clear,300,2013-01-06 05:52:00